Location: Central Falls
(41.8900°N, 71.3929°W)
Time: 10:02:11
(UTC+00:00)

A-11 Canister half - Pass Details

Date: 05 December 2023
Orbit: 1526 x 1682 km, 47.3° (Epoch: 29 February)

Event Time Altitude Azimuth Distance (km) Brightness Sun altitude
Rises 02:25:44 0° 272° (W) 4,933 12.1 -56.5°
Reaches altitude 10° 02:28:59 10° 275° (W) 3,941 11.5 -57.1°
Enters shadow 02:31:58 22° 280° (W) 3,066 10.7 -57.6°
